DW1520 Weather Reports


time (UTC)temp
C
wind
direction
speed
KPH
gust
KPH
rain 1hr
cm
rain 24hr
cm
rain mn
cm
humidity
%
barometer
mb
20260508172005 18 157 3.2 8.0 0.00 0.00 0.00 31 1004.9
20260508171505 18 214 4.8 8.0 0.00 0.00 0.00 28 1005.1
20260508170505 18 279 3.2 14.5 0.00 0.00 0.00 29 1005.3
20260508170005 18 270 3.2 4.8 0.00 0.00 0.00 29 1005.3
20260508165505 18 195 8.0 14.5 0.00 0.00 0.00 29 1005.3
20260508165005 18 207 4.8 11.3 0.00 0.00 0.00 29 1005.5
20260508164505 18 198 8.0 19.3 0.00 0.00 0.00 28 1005.3
20260508164006 18 172 8.0 14.5 0.00 0.00 0.00 28 1005.4
20260508163014 18 181 9.7 19.3 0.00 0.00 0.00 32 1005.6
20260508162505 17 183 8.0 19.3 0.00 0.00 0.00 30 1005.7
20260508162005 17 179 6.4 16.1 0.00 0.00 0.00 30 1005.7
20260508161005 17 209 3.2 4.8 0.00 0.00 0.00 30 1005.8
20260508160506 17 209 4.8 20.9 0.00 0.00 0.00 33 1005.9
20260508160005 17 179 11.3 20.9 0.00 0.00 0.00 31 1005.8
20260508155006 17 179 4.8 12.9 0.00 0.00 0.00 33 1006.0
20260508154505 17 205 4.8 12.9 0.00 0.00 0.00 33 1005.9
20260508154005 17 169 8.0 19.3 0.00 0.00 0.00 32 1006.0
20260508153505 16 180 6.4 19.3 0.00 0.00 0.00 34 1006.1
20260508153005 16 180 4.8 19.3 0.00 0.00 0.00 32 1006.2
20260508152006 16 177 4.8 12.9 0.00 0.00 0.00 34 1006.3
20260508151506 16 181 8.0 14.5 0.00 0.00 0.00 35 1006.4
20260508151005 16 171 8.0 14.5 0.00 0.00 0.00 34 1006.5
20260508150506 16 182 8.0 19.3 0.00 0.00 0.00 34 1006.6
20260508150006 16 168 9.7 19.3 0.00 0.00 0.00 32 1006.7
20260508145005 15 212 8.0 16.1 0.00 0.00 0.00 35 1006.8
20260508144005 15 181 8.0 19.3 0.00 0.00 0.00 36 1006.9
20260508143506 14 173 9.7 20.9 0.00 0.00 0.00 35 1006.9
20260508143006 14 181 8.0 16.1 0.00 0.00 0.00 36 1006.9
20260508142505 13 177 9.7 19.3 0.00 0.00 0.00 36 1007.0
20260508142005 13 184 8.0 19.3 0.00 0.00 0.00 39 1007.0
20260508141505 13 178 8.0 19.3 0.00 0.00 0.00 39 1007.1
20260508141005 13 183 6.4 19.3 0.00 0.00 0.00 39 1007.1
20260508140505 12 177 8.0 16.1 0.00 0.00 0.00 39 1007.1
20260508140005 12 185 8.0 16.1 0.00 0.00 0.00 40 1007.1
20260508135505 12 176 8.0 19.3 0.00 0.00 0.00 40 1007.2
20260508135005 12 165 9.7 19.3 0.00 0.00 0.00 40 1007.2
20260508134505 11 186 8.0 16.1 0.00 0.00 0.00 42 1007.2
20260508134005 11 172 8.0 16.1 0.00 0.00 0.00 43 1007.2
20260508133505 11 185 4.8 14.5 0.00 0.00 0.00 45 1007.2
20260508133005 11 175 8.0 12.9 0.00 0.00 0.00 45 1007.3
20260508132505 10 180 6.4 12.9 0.00 0.00 0.00 47 1007.4
20260508132005 10 168 4.8 12.9 0.00 0.00 0.00 47 1007.3
20260508131505 10 183 6.4 14.5 0.00 0.00 0.00 48 1007.4
20260508131006 9 170 4.8 11.3 0.00 0.00 0.00 49 1007.4
20260508130505 8 172 4.8 11.3 0.00 0.00 0.00 51 1007.5
20260508130005 8 176 4.8 9.7 0.00 0.00 0.00 52 1007.5
20260508125514 8 147 3.2 8.0 0.00 0.00 0.00 54 1007.5
20260508125006 7 152 3.2 4.8 0.00 0.00 0.00 54 1007.5
20260508124505 7 165 3.2 4.8 0.00 0.00 0.00 54 1007.5
20260508124005 7 165 1.6 4.8 0.00 0.00 0.00 55 1007.5
20260508123505 6 165 1.6 4.8 0.00 0.00 0.00 55 1007.5
20260508123005 6 165 3.2 9.7 0.00 0.00 0.00 55 1007.5
20260508122505 6 161 1.6 9.7 0.00 0.00 0.00 57 1007.5
20260508122005 5 155 3.2 4.8 0.00 0.00 0.00 57 1007.5
20260508121505 5 155 3.2 4.8 0.00 0.00 0.00 57 1007.5
20260508121005 5 155 1.6 4.8 0.00 0.00 0.00 59 1007.4
20260508120505 5 155 1.6 4.8 0.00 0.00 0.00 59 1007.4
20260508120005 4 155 3.2 4.8 0.00 0.00 0.00 59 1007.4
20260508115505 4 155 1.6 4.8 0.00 0.00 0.00 59 1007.3
20260508115005 3 155 1.6 4.8 0.00 0.00 0.00 59 1007.4
20260508114505 3 155 1.6 4.8 0.00 0.00 0.00 61 1007.4
20260508114006 3 155 1.6 4.8 0.00 0.00 0.00 60 1007.4
20260508113505 3 155 1.6 4.8 0.00 0.00 0.00 61 1007.4
20260508113006 3 155 1.6 4.8 0.00 0.00 0.00 61 1007.5
20260508112505 3 155 1.6 3.2 0.00 0.00 0.00 62 1007.4
20260508112005 3 155 1.6 3.2 0.00 0.00 0.00 60 1007.4
20260508111505 3 155 1.6 3.2 0.00 0.00 0.00 61 1007.4
20260508111006 3 155 0.0 3.2 0.00 0.00 0.00 59 1007.4
20260508110505 3 155 0.0 3.2 0.00 0.00 0.00 59 1007.5
20260508105505 3 155 0.0 1.6 0.00 0.00 0.00 57 1007.5
20260508105005 3 155 0.0 3.2 0.00 0.00 0.00 57 1007.5
20260508104504 4 155 1.6 3.2 0.00 0.00 0.00 58 1007.5
20260508104005 4 155 0.0 3.2 0.00 0.00 0.00 58 1007.4
20260508103506 4 155 1.6 4.8 0.00 0.00 0.00 58 1007.5
20260508103005 4 155 1.6 3.2 0.00 0.00 0.00 58 1007.4
20260508102505 4 155 1.6 3.2 0.00 0.00 0.00 57 1007.5
20260508102005 5 155 1.6 3.2 0.00 0.00 0.00 58 1007.5
20260508101505 5 155 1.6 4.8 0.00 0.00 0.00 57 1007.5
20260508101005 4 155 1.6 4.8 0.00 0.00 0.00 56 1007.5
20260508100505 4 156 1.6 4.8 0.00 0.00 0.00 58 1007.6
20260508100005 4 150 1.6 4.8 0.00 0.00 0.00 58 1007.6
20260508095505 4 150 3.2 4.8 0.00 0.00 0.00 57 1007.7
20260508095005 4 150 1.6 4.8 0.00 0.00 0.00 58 1007.7
20260508094506 4 148 3.2 4.8 0.00 0.00 0.00 58 1007.7
20260508094005 3 148 1.6 4.8 0.00 0.00 0.00 58 1007.7
20260508093507 3 148 1.6 4.8 0.00 0.00 0.00 59 1007.7
20260508093007 3 148 1.6 4.8 0.00 0.00 0.00 60 1007.7
20260508092006 3 148 1.6 4.8 0.00 0.00 0.00 64 1007.7
20260508090507 3 148 0.0 1.6 0.00 0.00 0.00 64 1007.7
20260508090007 3 148 0.0 0.0 0.00 0.00 0.00 65 1007.8
20260508085006 3 148 0.0 1.6 0.00 0.00 0.00 64 1007.9
20260508084506 3 148 0.0 1.6 0.00 0.00 0.00 66 1007.9
20260508084006 3 148 0.0 1.6 0.00 0.00 0.00 67 1007.9
20260508083506 3 148 0.0 1.6 0.00 0.00 0.00 67 1007.9
20260508083009 3 148 0.0 0.0 0.00 0.00 0.00 65 1007.9
20260508082506 3 148 0.0 0.0 0.00 0.00 0.00 63 1007.9
20260508082006 3 148 0.0 0.0 0.00 0.00 0.00 63 1008.0
20260508081507 2 148 0.0 3.2 0.00 0.00 0.00 66 1008.1
20260508081007 2 146 0.0 3.2 0.00 0.00 0.00 67 1008.1
20260508080506 2 306 0.0 3.2 0.00 0.00 0.00 69 1008.2
20260508080006 2 306 0.0 0.0 0.00 0.00 0.00 69 1008.2
20260508075506 2 306 0.0 0.0 0.00 0.00 0.00 70 1008.2
20260508075006 2 306 0.0 0.0 0.00 0.00 0.00 70 1008.2
20260508074506 2 306 0.0 0.0 0.00 0.00 0.00 70 1008.2
20260508074007 2 306 0.0 0.0 0.00 0.00 0.00 71 1008.2
20260508073506 2 306 0.0 0.0 0.00 0.00 0.00 70 1008.3
20260508073006 2 306 0.0 0.0 0.00 0.00 0.00 71 1008.3
20260508072506 2 306 0.0 0.0 0.00 0.00 0.00 73 1008.4
20260508072006 2 306 0.0 0.0 0.00 0.00 0.00 72 1008.4
20260508071507 2 306 0.0 0.0 0.00 0.00 0.00 70 1008.4
20260508071007 3 306 0.0 0.0 0.00 0.00 0.00 66 1008.4
20260508070506 3 306 0.0 0.0 0.00 0.00 0.00 65 1008.5
20260508070007 3 306 0.0 0.0 0.00 0.00 0.00 65 1008.5
20260508065506 3 306 0.0 0.0 0.00 0.00 0.00 66 1008.6
20260508065006 3 306 0.0 0.0 0.00 0.00 0.00 65 1008.6
20260508064006 3 306 0.0 0.0 0.00 0.00 0.00 66 1008.6
20260508063506 3 306 0.0 0.0 0.00 0.00 0.00 67 1008.7
20260508062006 3 306 0.0 0.0 0.00 0.00 0.00 67 1008.8
20260508061506 3 306 0.0 0.0 0.00 0.00 0.00 69 1008.8
20260508061007 3 306 0.0 0.0 0.00 0.00 0.00 71 1008.9
20260508060006 3 306 0.0 0.0 0.00 0.00 0.00 71 1008.9
20260508055506 3 306 0.0 0.0 0.00 0.00 0.00 70 1009.0
20260508055007 4 306 0.0 0.0 0.00 0.00 0.00 67 1008.9
20260508054506 4 306 0.0 0.0 0.00 0.00 0.00 64 1009.0
20260508054007 4 306 0.0 0.0 0.00 0.00 0.00 63 1009.0
20260508052506 4 306 0.0 0.0 0.00 0.00 0.00 62 1009.2
20260508052006 4 306 0.0 0.0 0.00 0.00 0.00 64 1009.1
20260508051506 4 306 0.0 0.0 0.00 0.00 0.00 64 1009.2
20260508051006 4 306 0.0 0.0 0.00 0.00 0.00 61 1009.1
20260508050506 4 306 0.0 0.0 0.00 0.00 0.00 62 1009.2
20260508050006 4 306 0.0 0.0 0.00 0.00 0.00 62 1009.2
20260508045506 5 306 0.0 0.0 0.00 0.00 0.00 63 1009.3
20260508045006 5 306 0.0 0.0 0.00 0.00 0.00 62 1009.2
20260508044506 4 306 0.0 0.0 0.00 0.00 0.00 61 1009.2
20260508044006 5 306 0.0 0.0 0.00 0.00 0.00 57 1009.2
20260508043506 5 306 0.0 0.0 0.00 0.00 0.00 56 1009.2
20260508043014 5 306 0.0 0.0 0.00 0.00 0.00 55 1009.3
20260508042506 5 306 0.0 0.0 0.00 0.00 0.00 54 1009.2
20260508042007 5 306 0.0 0.0 0.00 0.00 0.00 54 1009.2
20260508041506 5 306 0.0 0.0 0.00 0.00 0.00 54 1009.2
20260508041006 5 306 0.0 0.0 0.00 0.00 0.00 53 1009.2
20260508040507 5 306 0.0 0.0 0.00 0.00 0.00 53 1009.3
20260508035506 6 306 0.0 0.0 0.00 0.00 0.00 53 1009.3
20260508035006 6 306 0.0 0.0 0.00 0.00 0.00 55 1009.3
20260508034506 6 306 0.0 0.0 0.00 0.00 0.00 57 1009.4
20260508033506 6 306 0.0 0.0 0.00 0.00 0.00 47 1009.3
20260508033006 6 306 0.0 0.0 0.00 0.00 0.00 46 1009.3
20260508032506 6 306 0.0 0.0 0.00 0.00 0.00 46 1009.3
20260508031506 7 306 0.0 0.0 0.00 0.00 0.00 45 1009.3
20260508025506 7 306 0.0 0.0 0.00 0.00 0.00 43 1009.2
20260508025006 7 306 0.0 0.0 0.00 0.00 0.00 42 1009.2
20260508024506 7 306 0.0 0.0 0.00 0.00 0.00 42 1009.2
20260508022506 8 306 0.0 0.0 0.00 0.00 0.00 39 1009.1
20260508022007 8 306 0.0 0.0 0.00 0.00 0.00 38 1008.9
20260508021506 9 306 0.0 0.0 0.00 0.00 0.00 38 1008.9
20260508021006 9 306 0.0 0.0 0.00 0.00 0.00 38 1008.9
20260508020506 9 306 0.0 0.0 0.00 0.00 0.00 38 1008.8
20260508020007 9 306 0.0 0.0 0.00 0.00 0.00 38 1008.8
20260508015506 10 306 0.0 0.0 0.00 0.00 0.00 37 1008.7
20260508015006 10 306 0.0 0.0 0.00 0.00 0.00 37 1008.7
20260508014506 10 306 0.0 0.0 0.00 0.00 0.00 37 1008.7
20260508014006 10 306 0.0 0.0 0.00 0.00 0.00 37 1008.6
20260508013507 10 306 0.0 0.0 0.00 0.00 0.00 35 1008.5
20260508012506 10 306 0.0 0.0 0.00 0.00 0.00 35 1008.5
20260508012006 11 306 0.0 0.0 0.00 0.00 0.00 36 1008.5
20260508011506 11 306 0.0 0.0 0.00 0.00 0.00 35 1008.5
20260508010506 11 306 0.0 0.0 0.00 0.00 0.00 37 1008.4
20260508010006 11 306 0.0 0.0 0.00 0.00 0.00 39 1008.4
20260508005506 11 306 0.0 0.0 0.00 0.00 0.00 37 1008.4
20260508005007 12 306 0.0 0.0 0.00 0.00 0.00 38 1008.5
20260508004505 12 306 0.0 0.0 0.00 0.00 0.00 35 1008.4
20260508004006 12 306 0.0 0.0 0.00 0.00 0.00 34 1008.4
20260508003507 12 306 0.0 0.0 0.00 0.00 0.00 34 1008.4
20260508003008 12 306 0.0 3.2 0.00 0.00 0.00 31 1008.4
20260508002506 12 306 1.6 4.8 0.00 0.00 0.00 31 1008.4
20260508002006 12 306 1.6 3.2 0.00 0.00 0.00 33 1008.4
20260508001506 12 306 1.6 3.2 0.00 0.00 0.00 31 1008.5
20260508001006 12 306 0.0 3.2 0.00 0.00 0.00 31 1008.5
20260508000006 13 310 0.0 4.8 0.00 0.00 0.00 31 1008.5
20260507235506 13 302 1.6 3.2 0.00 0.00 0.00 30 1008.6
20260507235006 13 302 1.6 3.2 0.00 0.00 0.00 29 1008.7
20260507234006 13 302 0.0 4.8 0.00 0.00 0.00 31 1008.7
20260507233507 13 302 3.2 4.8 0.00 0.00 0.00 29 1008.7
20260507233006 13 302 3.2 4.8 0.00 0.00 0.00 29 1008.7
20260507232506 13 290 3.2 4.8 0.00 0.00 0.00 28 1008.6
20260507232006 13 311 1.6 4.8 0.00 0.00 0.00 29 1008.6
20260507231506 13 311 3.2 4.8 0.00 0.00 0.00 30 1008.6
20260507231007 13 311 3.2 11.3 0.00 0.00 0.00 30 1008.7
20260507230506 13 330 1.6 4.8 0.00 0.00 0.00 30 1008.7
20260507230006 13 330 3.2 4.8 0.00 0.00 0.00 29 1008.7
20260507225506 13 330 1.6 4.8 0.00 0.00 0.00 29 1008.8
20260507225007 13 330 3.2 12.9 0.00 0.00 0.00 29 1008.8
20260507224506 13 296 4.8 12.9 0.00 0.00 0.00 29 1008.8
20260507224007 13 306 4.8 11.3 0.00 0.00 0.00 31 1008.8
20260507223006 13 304 4.8 16.1 0.00 0.00 0.00 29 1008.9
20260507221506 13 297 3.2 12.9 0.00 0.00 0.00 29 1009.0
20260507221006 13 297 3.2 14.5 0.00 0.00 0.00 29 1008.9
20260507220006 13 295 6.4 14.5 0.00 0.00 0.00 29 1009.1
20260507215506 13 286 4.8 16.1 0.00 0.00 0.00 30 1009.1
20260507215006 13 283 3.2 12.9 0.00 0.00 0.00 29 1009.0
20260507214506 13 265 1.6 3.2 0.00 0.00 0.00 27 1008.9
20260507214006 13 313 3.2 9.7 0.00 0.00 0.00 30 1009.0
20260507213506 13 224 4.8 9.7 0.00 0.00 0.00 28 1009.0
20260507213006 13 309 3.2 12.9 0.00 0.00 0.00 29 1009.0
20260507212505 13 298 4.8 12.9 0.00 0.00 0.00 30 1009.0
20260507212006 13 313 3.2 12.9 0.00 0.00 0.00 28 1009.0
20260507211507 13 297 4.8 14.5 0.00 0.00 0.00 30 1009.0
20260507211006 13 347 3.2 8.0 0.00 0.00 0.00 29 1009.0
20260507210506 13 308 3.2 11.3 0.00 0.00 0.00 31 1009.1
20260507210006 13 293 4.8 12.9 0.00 0.00 0.00 32 1009.1
20260507205006 14 225 3.2 8.0 0.00 0.00 0.00 28 1009.1
20260507204506 13 218 3.2 9.7 0.00 0.00 0.00 31 1009.1
20260507204006 13 315 1.6 8.0 0.00 0.00 0.00 29 1009.2
20260507203506 13 312 3.2 8.0 0.00 0.00 0.00 30 1009.3
20260507203007 13 329 3.2 8.0 0.00 0.00 0.00 29 1009.3
20260507202006 13 329 3.2 11.3 0.00 0.00 0.00 29 1009.4
20260507201505 13 218 4.8 14.5 0.00 0.00 0.00 29 1009.5
20260507201007 13 303 3.2 8.0 0.00 0.00 0.00 30 1009.4
20260507200506 13 249 3.2 8.0 0.00 0.00 0.00 33 1009.4
20260507200006 13 286 3.2 14.5 0.00 0.00 0.00 30 1009.5
20260507195006 13 261 3.2 4.8 0.00 0.00 0.00 30 1009.6
20260507194506 13 302 4.8 11.3 0.00 0.00 0.00 31 1009.7
20260507194006 13 332 3.2 8.0 0.00 0.00 0.00 33 1009.7
20260507193506 13 311 3.2 4.8 0.00 0.00 0.00 35 1009.6
20260507193006 13 308 4.8 8.0 0.00 0.00 0.00 31 1009.7
20260507192506 13 292 4.8 11.3 0.00 0.00 0.00 32 1009.6
20260507192006 13 303 3.2 4.8 0.00 0.00 0.00 33 1009.6
20260507191505 13 217 3.2 9.7 0.00 0.00 0.00 31 1009.7
20260507191007 13 304 3.2 9.7 0.00 0.00 0.00 34 1009.7
20260507190506 13 333 3.2 12.9 0.00 0.00 0.00 31 1009.7
20260507190006 13 210 3.2 8.0 0.00 0.00 0.00 34 1009.9
20260507185506 13 288 3.2 4.8 0.00 0.00 0.00 34 1009.9
20260507185006 13 302 1.6 4.8 0.00 0.00 0.00 34 1009.9
20260507184505 12 303 1.6 11.3 0.00 0.00 0.00 36 1009.8
20260507184006 12 313 3.2 14.5 0.00 0.00 0.00 36 1009.9
20260507183506 12 300 4.8 14.5 0.00 0.00 0.00 36 1009.9
20260507183006 12 238 3.2 8.0 0.00 0.00 0.00 36 1010.0
20260507182506 12 310 3.2 12.9 0.00 0.00 0.00 35 1010.0
20260507182006 12 1 3.2 19.3 0.00 0.00 0.00 35 1010.1
20260507181006 12 302 3.2 11.3 0.00 0.00 0.00 36 1010.1
20260507180506 12 306 6.4 14.5 0.00 0.00 0.00 38 1010.2
20260507180005 12 297 4.8 8.0 0.00 0.00 0.00 37 1010.3
20260507175506 12 301 3.2 8.0 0.00 0.00 0.00 37 1010.3
20260507175006 12 246 3.2 12.9 0.00 0.00 0.00 35 1010.4
20260507174506 12 319 3.2 4.8 0.00 0.00 0.00 36 1010.5
20260507174006 12 323 3.2 4.8 0.00 0.00 0.00 35 1010.5
20260507173506 12 224 3.2 4.8 0.00 0.00 0.00 41 1010.5
20260507173006 11 309 1.6 4.8 0.00 0.00 0.00 39 1010.6
20260507172505 11 328 1.6 4.8 0.00 0.00 0.00 38 1010.6